Regional Weather Roundup
Issued by NWS

Home | Current Version | Previous Version | Text Only | Print | Product List | Glossary On
Versions: 1 2 3 4 5 6 7 8 9 10 11 12 13 14 15 16 17 18 19 20 21 22 23 24 25 26 27
000
ASUS42 KTBW 230617
RWRFL
FLORIDA REGIONAL WEATHER ROUNDUP
NATIONAL WEATHER SERVICE TAMPA BAY RUSKIN FL
200 AM EDT SUN JUL 23 2017

NOTE: "FAIR" INDICATES FEW OR NO CLOUDS BELOW 12,000 FEET WITH NO
SIGNIFICANT WEATHER AND/OR OBSTRUCTIONS TO VISIBILITY.

FLZ001>010-012>015-112-114-115-230700-
PANHANDLE FLORIDA

CITY           SKY/WX    TMP DP  RH WIND       PRES   REMARKS
PENSACOLA      CLEAR     83  74  74 NW3       29.98S
PENSACOLA NAS  PTCLDY    80  75  84 CALM      29.97S
MILTON NAS     CLEAR     74  73  97 CALM      29.98
CRESTVIEW      CLEAR     76  73  91 S3        29.99F
DUKE FIELD     FAIR      75  74  95 CALM      29.98F
VALPARAISO     PTCLDY    82  75  78 CALM      29.98S
MARY ESTHER    PTCLDY    83  77  80 CALM      29.97S
PANAMA CITY    MOCLDY    79  77  94 CALM      29.98F
TYNDALL AFB    PTCLDY    82  74  75 SW9       29.99F
APALACHICOLA   MOCLDY    82  77  84 W8        29.99F

STATION/POSITION SKY/WX   TEMP    WIND        PRES    WAVE   SWELL
                          AIR SEA DIR/SP/G            HT/PER HT/PER
                          (F)     (DEG/KT/KT) (MB)    (FT/S) (FT/S)
30.1N   87.6W              84 87  220/ 10/ 14 1014.5F   2/ 3
29.2N   88.2W              83 85  230/ 12/ 14 1015.4F   2/ 4
28.8N   86.0W              83 84  220/ 12/ 12 1016.1    1/ 3
PANAMA CITY BEAC                  230/ 11/ 13 1015.8F
TOWER C          NOT AVBL
28.5N   84.5W              85 86  210/ 10/ 12 1016.6    1/ 8

$$
FLZ011-016>038-118-127-128-134-139-239-230700-
NORTH FLORIDA

CITY           SKY/WX    TMP DP  RH WIND       PRES   REMARKS
MARIANNA       CLEAR     78  77  96 S6        29.98F
TALLAHASSEE    CLEAR     77  76  96 CALM      30.00F
PERRY          PTCLDY    77  75  94 CALM      30.02S
LIVE OAK       PTCLDY    75  75 100 S3        30.02F
CROSS CITY     CLOUDY    76  76  98 CALM      30.06F
LAKE CITY      FAIR      73  73 100 CALM      30.03F
GAINESVILLE    CLOUDY    76  75  97 S5        30.05F
WILLISTON      CLEAR     79  79 100 CALM      30.04S
PALATKA        MOCLDY    75  75 100 S7        30.04S
MAYPORT NAS    CLEAR     75  74  96 SW7       30.02S
JACKSONVILLE   CLOUDY    75  75 100 S6        30.01F
JAX NAS        MOCLDY    77  75  93 S6        30.03S
JAX CECIL      CLOUDY    75  75 100 CALM      30.02F
FERNANDINA BEA CLOUDY    79  77  94 SW7       30.00S
ST AUGUSTINE   CLOUDY    75  74  96 S8        30.04S
PALM COAST     FAIR      74  74 100 SW5       30.04F

STATION/POSITION SKY/WX   TEMP    WIND        PRES    WAVE   SWELL
                          AIR SEA DIR/SP/G            HT/PER HT/PER
                          (F)     (DEG/KT/KT) (MB)    (FT/S) (FT/S)
SHELL POINT      NOT AVBL
KEATON BEACH               83     230/ 12/ 13 1015.6F
CEDAR KEY                  84     230/  8/ 10 1017.0F
FERNANDINA                    84  190/  3/  7 1017.1F
30.7N   81.3W                 81                N/A     2/10
MAYPORT                       81  210/  5/  6 1016.9F
31.4N   80.9W              80 81  230/ 16/ 17 1015.3F   3/ 9   2/ 9
ST AUGUSTINE               75 79  210/  6/  8 1017.1F

$$
FLZ040-043>046-052-053-057-058-063-144-230700-
INTERIOR CENTRAL FLORIDA

CITY           SKY/WX    TMP DP  RH WIND       PRES   REMARKS
OCALA          PTCLDY    76  75  97 S6        30.05F
THE VILLAGES     N/A     77  77 100 CALM      29.95F
LEESBURG       PTCLDY    79  76  90 S6        30.05F
SANFORD        CLOUDY    76  73  91 S6        30.04F
ORLANDO INTL   CLOUDY    75  75 100 S5        30.06F
KISSIMMEE      CLOUDY    76  73  91 CALM      30.07F
WINTER HAVEN   CLOUDY    77  73  87 S5        30.07F
LAKELAND         N/A     75  75 100 SE3       30.07F
BARTOW         FAIR      73 N/A N/A CALM      30.07F
SEBRING        FAIR      76  73  90 CALM      30.07S
OKEECHOBEE     CLOUDY    73  72  94 CALM      30.07S

$$
FLZ041-047-054-059-064-141-147-230700-
EAST CENTRAL FLORIDA

CITY           SKY/WX    TMP DP  RH WIND       PRES   REMARKS
DAYTONA BEACH  CLOUDY    75  75 100 S3        30.04F
DELAND         CLOUDY    75  75 100 CALM      30.04F
CAPE CANAVERAL PTCLDY    76  76  99 S3        30.04F
PATRICK AFB    CLOUDY    77  76  95 S5        30.05F
MELBOURNE      CLOUDY    76  74  93 CALM      30.05F
VERO BEACH     CLOUDY    76  73  91 CALM      30.06F
FT PIERCE      CLOUDY    76  73  91 CALM      30.06F
STUART         CLOUDY    79  79 100 CALM      30.07S

STATION/POSITION SKY/WX   TEMP    WIND        PRES    WAVE   SWELL
                          AIR SEA DIR/SP/G            HT/PER HT/PER
                          (F)     (DEG/KT/KT) (MB)    (FT/S) (FT/S)
28.5N   80.2W              82 83  170/  6/  8 1018.8F   2/ 9   2/ 9
28.9N   78.5W              83 85  240/  8/ 10 1017.8F   3/ 8   3/ 8
TRIDENT PIER                  83  180/  1/  2 1019.2F
28.4N   80.5W                 83                N/A     1/ 9
27.5N   80.2W                 80                N/A     2/ 9

$$
FLZ050-056-061-142-242-148-248-149-249-151-251-155-255-
160-260-230700-
WEST CENTRAL FLORIDA

CITY           SKY/WX    TMP DP  RH WIND       PRES   REMARKS
CRYSTAL RIVER  MOCLDY    77  75  94 CALM      30.04F
INVERNESS      FAIR      75  75 100 CALM      30.05F
BROOKSVILLE    CLEAR     76  75  97 SE3       30.05F
CLEARWATER AIR FAIR      79  75  89 SE3       30.04S
ST PETE CLEARW CLEAR     80  76  87 SE5       30.04F
TAMPA INTL     MOCLDY    81  76  84 CALM      30.05F
TAMPA EXEC     CLEAR     77  73  88 CALM      30.06S
PLANT CITY     CLOUDY    77  75  94 SE3       30.08F
MACDILL AFB    PTCLDY    78  78 100 SE8       30.05S
PETER O KNIGHT MOCLDY    81  81 100 SE3       30.06S
ST PETERSBURG  PTCLDY    82  78  88 SE10      30.03S
SARASOTA       PTCLDY    77  75  93 E5        30.04S
VENICE         FAIR      81  77  89 SE7       30.05S

STATION/POSITION SKY/WX   TEMP    WIND        PRES    WAVE   SWELL
                          AIR SEA DIR/SP/G            HT/PER HT/PER
                          (F)     (DEG/KT/KT) (MB)    (FT/S) (FT/S)
27.3N   84.2W                 87                N/A     1/ 7
CLEARWATER BEACH              87  160/  5/  6 1017.4F
MIDDLE TAMPA BAY                  150/  9/ 11 1017.7F
VENICE                     80 88  110/  6/  7 1017.5F

$$
FLZ066-069-070-075>078-162-262-165-265-230700-
SOUTHWEST FLORIDA AND KEYS

CITY           SKY/WX    TMP DP  RH WIND       PRES   REMARKS
PUNTA GORDA    CLOUDY    77  75  93 SE3       30.07S
FT MYERS       CLEAR     77  77 100 CALM      30.04F
SOUTHWEST INTL PTCLDY    77  74  90 SE3       30.05F
NAPLES         PTCLDY    79  77  94 E5        30.04F
MARCO ISLAND   PTCLDY    77  73  88 E5        30.04F
IMMOKALEE      MOCLDY    75  73  94 CALM      30.06S
MARATHON       PTCLDY    84  77  79 SE6       30.04F
KEY WEST NAS     N/A     83  77  82 E10       30.04F
KEY WEST INTL  CLEAR     85  75  72 SE12      30.04F

STATION/POSITION SKY/WX   TEMP    WIND        PRES    WAVE   SWELL
                          AIR SEA DIR/SP/G            HT/PER HT/PER
                          (F)     (DEG/KT/KT) (MB)    (FT/S) (FT/S)
NAPLES                        87  110/  2/  4 1017.3F
DRY TORTUGAS               86     120/  9/ 10 1017.0F
SAND KEY                   84     130/ 12/ 14 1017.8F

$$
FLZ067-068-071>074-168-172>174-230700-
SOUTHEAST FLORIDA

CITY           SKY/WX    TMP DP  RH WIND       PRES   REMARKS
W PALM BEACH   PTCLDY    82  74  76 S3        30.06S
FT LAUDER-EXEC CLEAR     82  73  74 SE6       30.05F
FT LAUDERDALE  MOCLDY    83  76  79 SE7       30.04F
POMPANO BEACH  PTCLDY    84  75  74 SE7       30.05F
PEMBROKE PINES CLEAR     82  75  79 CALM      30.06F
OPA LOCKA      PTCLDY    82  77  84 E3        30.05F
MIAMI          MOCLDY    83  75  77 E5        30.05F
WEST KENDALL   PTCLDY    81  75  82 SE3       30.04F
HOMESTEAD      CLEAR     81  78  92 CALM      30.04F

STATION/POSITION SKY/WX   TEMP    WIND        PRES    WAVE   SWELL
                          AIR SEA DIR/SP/G            HT/PER HT/PER
                          (F)     (DEG/KT/KT) (MB)    (FT/S) (FT/S)
PORT EVERGLADES            85     130/  7/ 10 1017.6F
VIRGINIA KEY                  87  100/  6/  9 1017.0F
LAKE WORTH                        150/ 12/ 13   N/A
FOWEY ROCKS                85 88  110/ 13/ 15 1017.7F
SETTLEMENT POINT           82     140/  6/  7 1017.9F

$$





USA.gov is the U.S. government's official web portal to all federal, state and local government web resources and services.